Location: USNO
(38.9242°N, 77.0663°W)
Time: 16:40:07
(UTC-05:00)

OTV 5 (USA 277) - Pass Details

Date: 12 October 2017
Orbit: 404 x 417 km, 43.0° (Epoch: 07 September)

Event Time Altitude Azimuth Distance (km) Brightness Sun altitude
Rises 19:37:14 0° 256° (WSW) 2,349 ? -13.1°
Reaches altitude 10° 19:39:21 10° 259° (W) 1,487 ? -13.6°
Maximum altitude 19:42:42 67° 343° (NNW) 455 ? -14.2°
Enters shadow 19:44:25 26° 60° (ENE) 856 ? -14.5°
